This is the latest recevied weather packets stored in our database for station/object OH5GWF-1. If no packets are shown the sender has not sent any weather packets the latest 10 day(s).
| Time | Temp. | Humidity | Pressure | Rain* | Wind** | Luminosity | Snow |
|---|---|---|---|---|---|---|---|
| 1777788238 | 11.67° C | 69% | 1005.3 hPa | 0 mm | - | - | - |
| 1777787806 | 11.11° C | 72% | 1005.3 hPa | 0 mm | - | - | - |
| 1777787393 | 10.56° C | 74% | 1005.4 hPa | 0 mm | - | - | - |
| 1777786970 | 9.44° C | 76% | 1005.3 hPa | 0 mm | - | - | - |
| 1777786560 | 8.89° C | 76% | 1005.4 hPa | 0 mm | - | - | - |
| 1777786138 | 8.89° C | 77% | 1005.4 hPa | 0 mm | - | - | - |
| 1777785715 | 8.89° C | 77% | 1005.2 hPa | 0 mm | - | - | - |
| 1777785293 | 8.89° C | 78% | 1005.1 hPa | 0 mm | - | - | - |
| 1777784869 | 8.33° C | 79% | 1005 hPa | 0 mm | - | - | - |
| 1777784459 | 7.78° C | 80% | 1005 hPa | 0 mm | - | - | - |
| 1777784037 | 7.78° C | 80% | 1005 hPa | 0 mm | - | - | - |
| 1777783615 | 7.78° C | 80% | 1005.1 hPa | 0 mm | - | - | - |
| 1777783194 | 7.78° C | 79% | 1005 hPa | 0 mm | - | - | - |
| 1777782771 | 7.78° C | 79% | 1004.8 hPa | 0 mm | - | - | - |
| 1777782350 | 7.78° C | 79% | 1004.7 hPa | 0 mm | - | - | - |
| 1777781940 | 7.22° C | 79% | 1004.6 hPa | 0 mm | - | - | - |
| 1777781517 | 7.78° C | 79% | 1004.4 hPa | 0 mm | - | - | - |
| 1777781095 | 7.78° C | 79% | 1004.8 hPa | 0 mm | - | - | - |
| 1777780673 | 7.78° C | 80% | 1005 hPa | 0 mm | - | - | - |
| 1777780250 | 7.22° C | 81% | 1005 hPa | 0 mm | - | - | - |
| 1777779828 | 6.67° C | 82% | 1004.8 hPa | 0 mm | - | - | - |
| 1777779417 | 6.11° C | 83% | 1004.8 hPa | 0 mm | - | - | - |
| 1777778996 | 6.11° C | 83% | 1004.7 hPa | 0 mm | - | - | - |
| 1777778575 | 5.56° C | 83% | 1004.9 hPa | 0 mm | - | - | - |
| 1777778153 | 5.56° C | 84% | 1004.8 hPa | 0 mm | - | - | - |
* Rain latest hour (hover to see other rain measurements)
** Current wind speed in m/s (hover to see current wind gust speed)